Lapse_Rate
6.5 6.5 6.4 6.4 6.5 6.6 6.8 7.7 8.7 8.2 7.8 8.4 7.4 7.7 7.6 7.1 7.3 8.2 8.1 7.5 7.4 7.1 7.3 7.3 7.0 7.1 7.0 7.2 7.3 7.4 7.3 7.0 6.9 6.6 6.5 6.4 6.4 6.3 6.3 6.1 6.2 6.1 6.0 6.0 6.1 6.0 6.0 6.1 6.2
6.2 6.5 6.4 6.1 6.3 6.3 7.2 8.2 8.9 8.5 7.6 7.7 7.9 7.4 7.7 7.5 7.7 8.7 8.6 8.2 7.5 7.0 7.4 7.6 7.5 7.4 7.3 7.4 7.5 7.5 7.4 7.2 7.0 7.0 6.8 6.6 6.5 6.4 6.4 6.4 6.3 6.2 6.1 6.0 6.0 6.0 6.0 6.0 6.1
6.1 6.2 6.2 5.8 6.0 6.3 7.3 8.7 8.7 8.5 7.6 7.4 8.2 7.9 8.0 8.1 8.5 8.8 8.7 8.6 8.3 7.0 7.2 7.8 7.9 7.8 7.8 7.6 7.6 7.6 7.5 7.4 7.3 7.2 7.1 6.9 6.7 6.6 6.5 6.4 6.4 6.2 6.3 6.2 6.1 6.1 6.0 6.0 6.2
5.9 6.0 6.1 5.8 5.8 6.9 7.6 8.6 8.5 8.9 8.6 8.1 8.1 8.3 8.3 8.4 8.7 9.1 8.6 8.5 8.3 7.5 7.2 7.6 8.0 8.0 8.0 7.9 7.8 7.7 7.5 7.4 7.5 7.4 7.2 7.1 6.8 6.6 6.6 6.5 6.5 6.4 6.3 6.3 6.3 6.2 6.0 6.0 6.2
5.9 5.8 5.8 5.6 6.0 6.7 7.5 8.0 8.4 8.9 8.9 8.0 8.6 8.4 8.5 8.5 8.5 8.3 8.2 8.2 8.8 7.9 7.5 7.8 7.8 7.8 7.8 7.8 7.6 7.5 7.6 7.5 7.6 7.6 7.5 7.2 7.1 6.8 6.8 6.6 6.4 6.3 6.2 6.3 6.3 6.2 6.0 6.0 6.1
5.6 5.5 5.4 5.5 6.0 6.5 7.2 7.6 7.9 8.4 8.7 8.0 8.4 8.8 8.4 8.3 8.2 8.2 8.2 8.3 8.1 8.5 7.9 8.1 8.0 8.0 8.0 7.9 7.7 7.5 7.6 7.6 7.6 7.6 7.6 7.5 7.2 7.0 6.8 6.6 6.3 6.3 6.2 6.3 6.2 6.2 6.1 6.0 6.0
5.5 5.5 5.3 5.6 5.8 6.4 7.0 7.4 7.6 8.2 8.4 8.2 8.4 8.6 8.4 8.3 8.0 7.9 7.9 8.5 8.4 8.1 7.8 8.0 8.0 8.0 8.2 8.0 7.8 7.7 7.7 7.7 7.7 7.6 7.5 7.4 7.1 7.0 6.7 6.5 6.4 6.3 6.3 6.3 6.1 6.1 6.1 6.0 6.0
5.6 5.3 5.3 5.5 5.8 6.1 7.2 7.3 7.2 7.7 8.2 7.6 7.7 7.6 8.0 8.2 8.2 8.6 8.2 8.4 8.2 7.8 7.7 8.1 8.1 8.0 8.1 8.0 7.8 7.8 7.9 7.8 7.7 7.5 7.5 7.4 7.1 6.9 6.7 6.5 6.4 6.3 6.3 6.2 6.1 6.1 6.1 6.0 6.0
5.5 4.9 5.0 5.3 5.7 5.8 7.4 7.0 7.0 7.3 8.1 7.4 7.3 7.2 7.3 7.6 7.7 8.0 8.3 8.0 7.7 8.1 7.7 7.9 8.0 8.0 8.0 7.9 7.8 7.9 7.8 7.7 7.7 7.5 7.5 7.3 7.1 6.9 6.7 6.6 6.5 6.3 6.3 6.2 6.1 6.1 6.0 6.0 6.0
5.3 5.1 5.3 5.6 5.8 6.0 7.1 7.7 6.5 7.1 7.7 7.5 7.3 7.7 7.2 7.4 7.7 8.0 8.3 8.0 7.8 7.3 7.5 7.9 7.9 8.0 8.1 7.9 7.8 7.8 7.7 7.7 7.5 7.4 7.3 7.2 7.0 6.9 6.9 6.9 6.7 6.5 6.3 6.2 6.1 6.1 6.0 6.0 6.0
5.5 5.4 5.9 6.2 6.0 6.3 7.0 6.9 6.8 7.4 7.6 7.6 7.5 7.4 6.8 6.3 7.6 8.3 8.4 8.8 8.8 8.0 7.6 7.5 7.7 7.8 8.1 8.0 7.9 7.8 7.7 7.6 7.6 7.4 7.3 7.1 6.9 6.8 6.8 6.8 6.6 6.4 6.2 6.1 6.2 6.0 5.9 5.8 5.8
5.6 5.7 5.9 6.2 6.1 6.7 6.5 6.4 6.7 7.2 7.5 7.3 7.4 7.2 6.9 6.3 6.2 5.9 6.6 7.6 7.2 7.5 6.8 7.4 7.5 7.9 8.0 8.0 8.0 7.8 7.7 7.6 7.5 7.3 7.3 7.1 6.8 6.6 6.6 6.6 6.5 6.3 6.2 6.2 6.2 6.0 5.8 5.9 6.1
5.8 6.2 5.9 6.1 6.2 6.8 6.4 6.1 6.2 6.9 7.3 6.9 6.9 6.7 7.1 6.2 5.9 5.3 5.8 6.3 6.6 7.2 7.2 6.6 7.0 7.8 7.8 7.9 7.8 7.7 7.7 7.7 7.5 7.5 7.3 7.1 6.9 6.7 6.5 6.3 6.2 6.1 6.0 6.1 6.2 6.1 6.4 6.4 6.5
6.4 6.5 6.4 6.1 6.1 6.8 6.4 6.2 6.0 6.5 7.0 7.0 6.8 6.5 6.2 6.7 6.2 4.7 5.3 5.6 5.7 6.4 6.8 7.0 7.2 6.8 7.5 7.8 8.0 8.0 7.9 7.8 7.7 7.4 7.2 6.9 6.7 6.7 6.6 6.3 5.9 5.8 5.9 6.1 6.2 6.3 6.4 6.3 6.4
6.2 5.9 5.9 6.0 6.0 6.6 6.2 5.9 5.7 6.4 6.6 6.8 7.2 6.7 6.4 6.2 6.5 6.7 6.9 6.3 6.2 6.3 6.4 6.6 6.9 7.2 6.8 7.6 8.1 8.2 7.8 7.6 7.5 7.3 7.1 6.8 6.7 6.7 6.7 6.5 6.4 6.0 6.1 6.1 6.1 6.2 6.1 6.3 5.9
5.7 5.7 5.6 5.8 6.0 6.3 6.3 5.6 5.9 5.9 6.4 6.7 6.7 6.8 6.9 7.0 6.0 6.0 6.5 6.5 6.1 6.2 6.6 6.6 6.3 6.7 7.2 7.0 7.4 7.8 7.7 7.5 7.4 7.0 6.7 6.6 6.7 6.5 6.4 6.5 6.2 6.0 6.1 6.1 6.1 6.1 5.9 6.0 6.3
5.6 5.2 5.3 5.9 6.1 6.3 6.2 5.6 5.9 6.1 6.1 6.4 6.7 6.8 7.1 7.5 7.3 5.9 6.0 6.5 6.8 6.6 6.4 6.8 6.0 5.7 6.6 7.3 7.7 7.7 7.3 7.3 7.1 6.9 6.8 6.8 7.2 6.9 6.7 6.5 6.1 5.8 5.9 6.0 6.0 5.9 5.8 5.8 6.3
5.5 5.6 5.9 6.0 6.3 6.5 6.4 6.0 5.8 6.2 6.0 6.1 6.6 6.5 7.0 7.1 7.2 6.9 6.9 6.0 6.0 6.0 6.3 6.7 6.8 6.5 6.8 7.5 7.3 7.5 6.9 6.4 6.5 6.6 6.9 7.0 7.3 7.2 7.1 7.0 6.5 5.9 5.8 5.9 5.8 5.6 5.7 5.9 6.1
6.1 6.3 6.4 6.5 6.6 6.9 6.6 6.3 6.0 6.0 6.6 6.1 6.5 6.7 6.6 7.4 7.4 7.3 7.3 7.1 7.4 7.0 7.0 7.0 7.4 7.5 6.9 7.1 6.5 6.7 6.5 7.1 5.8 6.5 6.6 6.8 7.0 6.7 6.5 6.4 6.1 5.8 5.8 5.8 5.8 5.8 5.7 5.9 6.1
6.5 6.6 6.6 6.8 6.9 6.8 6.7 6.4 6.4 6.1 6.5 6.3 6.3 6.4 6.7 7.1 7.7 7.5 7.5 7.2 7.1 7.3 7.3 7.1 7.0 7.2 7.3 6.8 6.4 6.5 6.9 6.4 6.5 5.9 5.8 6.4 6.5 6.4 6.4 6.0 5.6 5.5 5.6 5.6 5.9 6.0 5.8 6.0 5.9
6.6 6.5 6.9 7.0 7.2 7.1 7.2 6.8 7.0 6.6 6.2 6.8 6.0 6.4 6.4 7.0 7.7 7.4 7.6 7.4 7.3 7.6 7.4 7.5 7.2 6.8 6.4 6.6 6.5 6.2 6.5 6.0 6.4 6.7 6.3 6.4 6.4 6.6 6.5 6.0 5.8 5.8 5.8 5.6 5.9 6.0 6.0 5.9 6.3
6.2 6.8 7.5 7.6 7.5 7.3 7.7 5.7 6.5 6.5 6.1 7.3 7.1 6.3 6.5 6.8 7.4 7.8 7.6 7.2 7.3 7.7 7.8 7.8 7.4 7.2 6.8 6.3 6.4 6.4 6.2 6.0 6.6 6.7 6.4 6.5 6.6 6.8 6.5 6.1 5.9 5.9 5.9 6.0 6.1 6.0 6.1 6.3 6.0
6.6 7.7 7.9 8.2 8.5 8.8 7.7 6.6 6.6 8.2 7.7 6.1 6.7 7.0 7.3 7.9 8.0 8.3 7.9 7.4 7.2 7.6 7.8 7.8 7.4 6.9 6.7 6.4 6.6 6.4 5.9 5.5 5.8 6.2 6.1 6.2 6.5 6.6 6.5 6.2 6.0 6.1 6.4 6.4 6.1 5.9 6.4 6.0 6.3
7.6 7.9 8.3 8.6 9.2 7.0 7.6 7.3 6.8 7.6 7.8 7.8 7.5 7.7 8.0 8.3 8.4 8.3 7.6 7.4 7.2 7.4 7.7 7.7 7.4 7.2 6.6 6.5 6.3 6.1 5.9 6.0 6.1 6.0 6.2 6.2 6.6 6.4 6.4 6.2 6.2 6.2 6.7 6.6 6.4 6.5 6.7 6.8 6.8
7.6 7.9 7.8 7.8 6.9 6.2 8.3 7.3 6.8 7.6 8.1 8.3 8.5 8.4 8.7 8.0 7.2 7.5 7.7 7.4 6.7 7.1 7.4 7.4 7.7 7.2 6.5 6.7 6.4 6.2 6.4 6.4 6.3 6.2 6.0 6.2 6.5 6.6 6.5 6.4 6.4 6.5 6.4 6.7 6.4 6.8 6.7 6.5 6.4
7.7 7.7 7.2 6.7 5.8 7.6 8.2 6.8 7.0 8.4 8.6 8.5 8.7 8.7 8.8 7.9 7.4 7.3 6.9 6.6 6.5 6.7 7.1 6.8 7.1 7.4 7.5 7.4 6.6 6.6 6.7 7.4 7.4 7.2 7.2 6.9 6.4 6.2 6.2 6.7 6.7 6.7 6.8 6.6 6.3 6.3 6.2 6.0 5.9
7.9 7.7 8.2 8.6 8.7 8.2 8.1 7.8 8.4 8.5 8.3 8.1 8.3 8.6 7.9 7.3 7.1 7.2 6.5 6.2 6.8 6.8 7.4 7.2 7.5 7.4 7.4 7.6 6.9 7.0 6.9 7.4 7.1 7.0 7.0 6.5 6.2 6.2 6.1 6.2 6.1 6.4 6.2 6.2 6.3 6.3 6.2 5.9 5.9
8.4 8.0 8.2 8.5 7.2 6.7 7.5 8.0 8.3 8.9 9.0 8.6 7.9 8.0 7.8 7.4 6.8 6.6 7.1 7.0 7.0 7.4 7.3 7.4 7.3 7.4 7.5 7.5 7.5 7.2 6.9 6.9 6.8 6.7 6.5 6.5 6.4 6.2 6.4 6.4 6.2 5.9 6.0 5.9 6.1 5.7 5.7 5.8 5.9
8.1 8.7 8.6 8.8 8.3 6.0 5.6 8.0 8.1 7.8 7.7 9.0 8.4 8.1 7.9 7.8 7.8 7.3 7.2 7.7 7.9 8.1 7.8 7.5 7.3 7.0 7.0 6.8 6.6 6.6 6.6 6.6 6.4 6.3 6.3 6.1 6.0 6.0 5.9 5.8 5.8 5.8 5.7 5.8 6.0 6.1 6.1 6.0 5.8
8.8 8.9 9.2 9.0 7.6 7.9 6.4 7.3 8.5 7.7 8.3 8.8 8.4 8.0 7.8 7.4 7.2 7.5 7.8 7.6 7.6 7.8 7.9 7.4 6.9 6.6 6.6 6.4 6.3 6.3 6.2 6.0 5.8 5.6 5.7 5.7 5.7 5.6 5.6 5.2 5.5 5.3 5.3 5.7 5.7 5.8 5.9 6.1 6.0
Wind_Speed
10 12 2 3 3 4 4 6 5 6 7 4 7 6 12 4 4 4 2 13 18 15 17 19 22 22 23 23 21 21 20 20 20 18 17 17 17 16 17 16 15 16 16 15 14 13 12 11 9
4 4 4 2 4 1 6 6 9 4 5 14 9 11 8 10 5 5 12 13 18 16 18 19 23 23 24 23 22 22 22 21 21 19 18 17 15 16 16 16 14 15 15 14 13 13 11 9 7
4 2 3 4 4 6 6 4 4 5 4 4 8 0 7 6 5 11 10 22 19 14 15 19 22 22 24 23 23 22 22 21 22 20 19 18 16 15 14 14 14 14 15 13 12 11 10 8 5
2 4 3 2 7 7 9 2 10 13 13 7 5 3 3 7 2 5 21 25 19 15 14 20 25 23 23 23 22 21 22 22 22 22 20 18 16 14 14 12 12 12 13 12 11 10 9 6 4
2 3 1 3 8 6 11 2 8 13 10 4 8 7 5 1 7 12 21 22 23 16 13 18 25 25 24 23 23 22 21 21 21 21 20 18 16 14 13 12 12 11 11 11 10 9 7 5 3
1 2 2 6 10 6 8 7 6 12 17 6 2 7 4 2 9 16 18 18 14 19 14 15 20 24 25 23 22 22 21 20 19 19 19 18 16 15 13 12 11 10 10 10 9 8 6 5 4
5 4 6 6 7 7 7 4 6 6 8 5 3 8 5 2 4 14 16 14 13 14 14 12 16 18 22 22 21 19 19 18 18 17 16 16 16 14 13 12 11 10 9 9 8 7 7 6 6
5 3 4 6 8 6 7 3 6 4 3 4 4 5 5 6 12 12 11 11 11 12 11 12 13 15 14 17 21 20 19 18 17 17 16 15 15 14 13 12 11 10 9 8 8 8 8 7 8
4 3 7 7 6 2 12 6 6 5 3 6 7 7 9 18 19 11 15 9 9 10 10 12 13 14 15 13 17 20 22 20 18 16 16 16 13 14 13 12 10 9 9 9 8 9 8 9 10
5 6 8 5 6 2 6 4 6 5 1 4 11 15 12 6 16 15 13 11 11 10 8 7 10 12 13 11 14 12 15 13 13 12 13 13 13 13 11 12 11 11 10 10 10 10 10 11 10
5 8 3 3 9 9 6 8 4 3 2 2 6 9 10 7 9 9 5 17 15 14 10 6 4 3 6 6 9 8 9 10 10 12 12 12 10 11 10 10 10 12 12 10 11 11 12 10 10
5 4 5 3 5 4 5 4 5 4 3 6 11 10 8 10 11 11 11 14 5 4 3 12 8 7 6 8 5 6 5 6 5 9 12 9 5 6 6 6 10 10 10 8 10 8 7 10 12
8 4 2 7 12 6 5 4 3 5 1 4 9 12 12 8 10 2 7 9 9 10 7 4 5 6 1 5 3 3 2 4 8 9 12 12 5 5 6 6 8 9 10 9 5 4 3 6 6
5 13 10 10 13 5 8 5 5 6 6 6 6 10 12 12 7 12 8 1 8 8 7 7 6 4 5 5 6 5 6 8 9 10 13 16 12 6 3 4 5 5 11 11 6 4 5 5 5
14 5 8 16 11 7 5 9 6 2 6 8 8 6 10 12 11 12 8 10 10 6 8 11 13 11 3 4 4 4 6 10 6 10 14 16 16 12 7 5 5 7 13 6 8 4 4 3 3
11 4 14 11 10 6 9 20 6 4 5 10 5 3 5 8 9 7 10 6 9 11 6 10 8 10 7 7 4 4 5 7 8 9 11 15 15 14 8 5 5 7 7 5 4 4 4 3 1
5 12 6 5 8 4 10 13 5 5 2 9 7 5 5 3 8 11 12 15 12 11 12 14 7 7 7 3 6 6 7 6 10 11 10 15 17 16 8 6 3 9 4 4 3 3 2 2 3
4 5 3 6 5 7 6 4 4 4 3 7 9 8 8 6 5 8 19 16 12 11 17 16 17 15 15 4 3 5 5 9 11 9 9 15 15 16 10 5 6 7 4 4 3 3 0 3 1
2 6 8 5 8 6 8 6 7 5 7 6 9 8 7 7 8 5 7 16 11 8 12 20 20 22 10 3 3 3 9 5 5 7 12 12 16 16 10 8 5 5 6 5 4 2 1 2 1
12 6 5 4 6 12 7 10 7 7 6 6 9 8 8 7 7 5 7 8 12 11 12 18 23 17 7 4 4 4 7 8 4 4 7 11 13 14 9 7 6 6 5 5 4 5 3 3 4
16 13 4 4 5 1 2 6 3 6 6 11 13 13 7 11 13 8 6 8 11 13 16 18 18 16 12 10 4 4 5 5 3 3 3 6 11 11 8 8 6 6 5 6 6 7 8 4 3
16 8 8 4 5 4 2 7 6 6 17 19 16 15 12 11 8 5 7 9 12 16 16 16 12 11 8 7 4 9 9 10 9 6 6 6 8 8 8 7 7 6 5 6 6 4 3 4 5
9 8 8 7 5 4 5 1 6 4 17 21 20 21 16 9 9 9 8 7 12 17 19 15 15 14 15 10 11 11 11 5 2 3 6 6 5 7 7 7 7 6 4 4 6 4 7 4 4
6 6 4 2 5 5 6 4 16 13 24 18 9 14 12 10 9 7 6 1 4 10 16 17 18 13 7 12 9 12 8 6 3 2 4 3 3 4 6 7 6 6 6 7 6 6 7 5 4
14 7 2 1 2 12 8 6 20 9 19 22 17 13 12 9 8 7 5 7 2 7 8 8 9 7 6 9 7 7 7 5 3 0 4 5 3 1 5 5 6 4 5 4 5 6 6 5 4
13 10 5 5 5 6 6 12 8 12 23 14 14 11 9 9 8 10 9 7 7 9 9 10 9 10 8 9 5 3 6 4 4 3 3 3 2 2 3 4 4 6 6 7 6 4 4 5 5
7 7 8 5 0 4 5 9 15 17 14 6 10 10 9 8 10 11 8 12 14 13 11 11 13 11 10 10 9 9 9 9 6 8 8 4 5 5 6 6 6 5 6 7 6 4 5 5 5
9 8 4 3 6 5 2 5 2 16 11 8 10 10 12 15 16 13 13 14 13 14 12 13 13 13 10 11 9 8 7 6 6 6 7 7 6 7 7 8 7 4 3 2 4 4 5 5 5
5 6 5 6 5 5 1 6 4 13 25 15 10 15 15 13 12 14 13 12 13 13 13 12 12 12 11 10 8 9 6 6 6 7 6 6 6 7 7 7 6 5 5 6 5 5 6 6 6
10 9 7 5 3 2 4 6 14 22 6 15 17 20 17 14 14 15 14 13 12 11 12 12 12 13 9 8 8 8 7 7 7 6 6 5 6 5 6 6 6 5 6 5 6 4 5 5 6
Wind_Direction
309 314 301 38 44 58 265 250 231 15 336 280 160 138 161 144 235 224 322 164 139 151 159 160 153 146 139 138 137 136 133 130 127 124 122 121 124 127 125 124 126 126 125 121 121 120 119 117 112
315 317 35 81 107 109 266 227 263 191 162 101 114 93 159 201 236 183 128 163 154 150 156 162 159 151 145 145 145 145 142 140 135 134 133 134 138 137 134 133 135 133 127 127 127 125 124 123 116
290 165 84 147 164 194 239 228 275 308 257 247 133 298 158 207 264 162 151 153 150 152 161 161 157 155 150 152 151 150 147 145 143 144 146 148 149 143 139 141 140 137 131 132 131 129 129 129 120
314 12 13 141 224 256 236 329 310 314 313 14 112 176 256 211 157 201 155 148 154 151 156 166 158 162 156 156 155 154 154 153 152 152 154 155 154 150 148 147 143 140 138 137 136 134 134 138 119
38 76 197 200 245 254 268 276 277 292 284 234 162 182 248 336 236 150 155 153 155 148 145 168 163 161 160 160 160 159 159 158 159 156 158 161 160 160 156 152 147 144 143 144 144 143 144 146 154
353 109 129 221 246 261 280 289 303 290 285 211 160 148 230 150 139 144 151 153 161 143 144 164 171 163 160 163 163 163 161 163 162 160 162 164 165 167 162 157 150 149 151 155 156 153 161 172 198
154 112 208 218 243 271 274 339 295 294 318 334 83 120 250 133 133 152 151 145 142 142 138 159 168 169 162 162 163 163 160 163 164 166 167 167 168 168 165 161 158 159 162 167 166 173 186 201 222
149 120 218 221 230 273 269 281 257 4 50 268 293 226 185 127 145 139 135 125 134 136 142 157 167 168 165 164 162 163 163 166 169 172 169 169 169 170 171 171 171 170 174 182 185 195 206 219 240
150 182 219 219 217 248 306 331 304 250 93 80 329 63 308 140 144 135 132 134 135 145 152 162 166 168 170 169 169 166 169 170 171 176 172 170 172 176 180 182 185 186 192 196 201 210 219 232 244
175 206 228 202 226 257 276 334 326 286 314 64 16 26 359 140 138 142 158 155 150 151 157 158 164 171 167 171 172 170 169 170 172 175 172 172 180 184 187 193 198 203 209 210 213 219 226 236 246
212 230 213 204 239 250 274 311 342 271 45 77 68 28 25 10 336 150 168 166 162 164 164 136 124 137 152 150 174 175 176 175 176 175 172 175 183 193 200 206 209 212 218 221 223 227 230 234 240
247 241 215 289 266 277 252 236 291 10 63 130 92 93 72 0 346 10 38 11 18 79 154 149 157 164 185 146 170 170 175 173 176 182 178 175 182 199 200 203 211 208 211 215 229 235 245 249 251
243 264 250 225 263 245 296 241 247 266 48 42 95 84 114 81 326 330 356 41 60 38 17 19 174 169 168 151 149 159 202 186 189 188 195 188 192 204 194 210 208 213 205 212 225 223 258 264 281
224 223 250 247 250 248 236 237 179 240 341 12 85 106 113 140 169 246 215 61 57 31 7 9 359 226 156 185 182 189 185 196 192 194 201 198 199 208 203 210 210 206 208 216 207 184 215 241 220
239 250 221 236 244 212 119 273 223 267 348 334 27 120 128 139 159 202 212 189 140 137 91 51 5 19 293 198 216 202 199 198 204 208 209 205 201 201 209 206 198 211 216 189 180 174 161 209 217
204 191 236 233 229 211 167 257 221 287 2 304 341 64 150 157 157 211 216 212 162 199 145 76 45 328 329 338 220 222 213 205 217 215 207 214 212 207 211 212 203 185 173 168 160 195 197 233 241
229 225 212 222 220 151 189 250 236 228 233 284 298 308 296 223 140 138 158 173 174 191 136 128 112 272 257 267 339 250 224 216 213 212 198 213 213 212 200 202 193 143 152 174 190 213 205 189 248
232 165 196 206 256 191 209 227 272 269 227 247 279 284 294 265 169 148 172 179 178 174 167 157 152 198 246 203 161 296 254 218 228 217 209 208 215 213 206 196 172 156 161 175 193 237 127 67 263
266 199 202 208 227 167 208 206 230 249 277 260 267 268 266 271 162 178 124 183 178 184 172 181 176 189 218 140 169 144 247 218 212 205 210 204 210 214 212 221 163 161 152 190 207 107 214 299 280
240 227 219 255 190 198 221 237 228 231 239 239 260 252 255 263 153 180 147 142 168 171 180 183 181 190 201 186 189 172 258 242 192 202 198 199 208 205 201 187 199 165 150 189 186 177 182 211 179
218 219 178 179 173 266 105 294 271 270 251 256 249 256 230 235 257 157 165 183 166 170 187 209 204 195 207 201 177 222 233 266 231 202 211 211 211 200 193 187 181 188 166 184 200 194 205 174 231
215 184 208 209 147 197 97 263 281 263 259 252 244 246 236 202 228 175 190 181 189 199 186 206 207 212 220 167 199 222 232 233 239 230 225 212 205 199 194 172 183 197 178 190 198 207 241 151 185
219 188 194 218 189 138 161 98 247 299 271 249 246 237 235 199 198 221 237 212 212 196 193 192 198 214 225 214 218 219 217 234 283 227 239 217 213 197 184 177 177 183 190 207 192 162 214 210 143
179 165 180 195 185 240 178 175 272 257 241 258 218 224 220 206 200 198 245 278 329 169 188 182 200 214 190 199 198 197 209 214 227 259 236 216 205 203 185 188 185 183 188 187 198 193 197 187 160
183 141 225 224 210 235 124 228 238 258 244 232 237 218 204 186 176 135 134 111 9 88 136 140 159 168 170 169 176 176 147 146 120 256 231 189 142 233 214 193 194 188 195 202 206 181 185 180 180
196 166 147 168 206 247 138 251 244 238 247 254 224 196 146 169 176 129 127 127 88 68 70 84 88 80 61 68 55 26 53 69 67 65 40 20 335 267 265 231 227 209 183 189 203 183 186 184 202
189 168 182 135 284 185 219 272 274 254 252 200 147 139 145 135 123 123 134 104 95 86 77 86 82 72 65 60 56 49 46 40 56 56 56 39 6 343 277 261 241 222 196 189 188 192 204 192 204
159 167 113 26 161 239 287 314 301 354 258 143 128 144 106 124 121 112 97 97 93 92 92 79 81 85 84 76 71 71 71 57 47 56 49 46 29 19 20 21 12 13 332 295 216 224 238 203 227
145 171 72 117 148 174 58 271 259 325 322 150 138 120 121 117 115 110 104 89 89 84 81 80 71 67 60 60 62 57 52 61 60 49 41 39 21 12 17 13 11 340 329 336 346 316 296 277 262
177 177 142 128 211 118 138 273 357 332 280 131 129 129 132 124 123 113 105 100 94 91 80 75 70 68 62 51 46 41 36 30 34 27 20 29 26 9 354 350 359 5 347 13 310 319 307 298 277